| time (UTC) | temp F | wind direction | speed MPH | gust MPH | rain 1hr in | rain 24hr in | rain mn in | humidity % | barometer mb |
| 20260510200034 | 105 | 350 | 0.0 | 7.0 | 0.00 | 0.00 | 0.00 | 10 | 994.4 |
| 20260510194530 | 103 | 251 | 3.0 | 8.0 | 0.00 | 0.00 | 0.00 | 9 | 994.5 |
| 20260510193028 | 102 | 309 | 3.0 | 8.0 | 0.00 | 0.00 | 0.00 | 9 | 994.7 |
| 20260510191527 | 102 | 319 | 4.0 | 10.0 | 0.00 | 0.00 | 0.00 | 9 | 994.9 |
| 20260510190026 | 101 | 335 | 3.0 | 8.0 | 0.00 | 0.00 | 0.00 | 9 | 995.0 |
| 20260510184523 | 100 | 332 | 4.0 | 10.0 | 0.00 | 0.00 | 0.00 | 10 | 995.1 |
| 20260510183024 | 100 | 319 | 4.0 | 12.0 | 0.00 | 0.00 | 0.00 | 9 | 995.3 |
| 20260510181522 | 99 | 71 | 7.0 | 12.0 | 0.00 | 0.00 | 0.00 | 10 | 995.4 |
| 20260510180019 | 98 | 32 | 8.0 | 14.0 | 0.00 | 0.00 | 0.00 | 10 | 995.4 |
| 20260510174517 | 98 | 20 | 7.0 | 13.0 | 0.00 | 0.00 | 0.00 | 10 | 995.3 |
| 20260510173015 | 96 | 30 | 8.0 | 18.0 | 0.00 | 0.00 | 0.00 | 11 | 995.3 |
| 20260510171513 | 96 | 28 | 10.0 | 14.0 | 0.00 | 0.00 | 0.00 | 14 | 995.4 |
| 20260510170009 | 94 | 313 | 2.0 | 7.0 | 0.00 | 0.00 | 0.00 | 13 | 995.4 |
| 20260510164507 | 92 | 121 | 3.0 | 9.0 | 0.00 | 0.00 | 0.00 | 12 | 995.4 |
| 20260510163003 | 91 | 310 | 1.0 | 5.0 | 0.00 | 0.00 | 0.00 | 14 | 995.5 |
| 20260510161559 | 89 | 157 | 1.0 | 5.0 | 0.00 | 0.00 | 0.00 | 16 | 995.4 |
| 20260510160055 | 87 | 151 | 1.0 | 5.0 | 0.00 | 0.00 | 0.00 | 16 | 995.6 |
| 20260510154557 | 85 | 140 | 1.0 | 6.0 | 0.00 | 0.00 | 0.00 | 15 | 995.5 |
| 20260510153051 | 83 | 138 | 1.0 | 4.0 | 0.00 | 0.00 | 0.00 | 16 | 995.6 |
| 20260510151552 | 81 | 115 | 1.0 | 4.0 | 0.00 | 0.00 | 0.00 | 18 | 995.6 |
| 20260510150055 | 81 | 223 | 1.0 | 4.0 | 0.00 | 0.00 | 0.00 | 18 | 995.6 |
| 20260510144605 | 80 | 161 | 1.0 | 5.0 | 0.00 | 0.00 | 0.00 | 18 | 995.6 |
| 20260510143104 | 79 | 211 | 0.0 | 4.0 | 0.00 | 0.00 | 0.00 | 16 | 995.3 |
| 20260510141546 | 79 | 219 | 0.0 | 1.0 | 0.00 | 0.00 | 0.00 | 18 | 995.3 |
| 20260510140046 | 76 | 275 | 0.0 | 1.0 | 0.00 | 0.00 | 0.00 | 19 | 995.0 |
| 20260510134602 | 74 | 345 | 0.0 | 2.0 | 0.00 | 0.00 | 0.00 | 19 | 994.9 |
| 20260510133041 | 74 | 313 | 0.0 | 2.0 | 0.00 | 0.00 | 0.00 | 19 | 994.7 |
| 20260510131539 | 74 | 96 | 0.0 | 2.0 | 0.00 | 0.00 | 0.00 | 18 | 994.3 |
| 20260510130038 | 73 | 96 | 1.0 | 2.0 | 0.00 | 0.00 | 0.00 | 17 | 994.1 |
| 20260510124540 | 72 | 35 | 0.0 | 1.0 | 0.00 | 0.00 | 0.00 | 17 | 993.9 |
| 20260510123034 | 73 | 12 | 0.0 | 2.0 | 0.00 | 0.00 | 0.00 | 18 | 993.8 |
| 20260510121531 | 71 | 17 | 1.0 | 1.0 | 0.00 | 0.00 | 0.00 | 20 | 993.6 |
| 20260510120037 | 72 | 17 | 0.0 | 3.0 | 0.00 | 0.00 | 0.00 | 20 | 993.4 |
| 20260510114526 | 73 | 123 | 0.0 | 1.0 | 0.00 | 0.00 | 0.00 | 19 | 993.3 |
| 20260510113026 | 73 | 132 | 0.0 | 1.0 | 0.00 | 0.00 | 0.00 | 19 | 993.1 |
| 20260510111521 | 76 | 119 | 0.0 | 1.0 | 0.00 | 0.00 | 0.00 | 17 | 993.0 |
| 20260510110024 | 75 | 90 | 1.0 | 2.0 | 0.00 | 0.00 | 0.00 | 17 | 992.9 |
| 20260510104517 | 75 | 111 | 1.0 | 2.0 | 0.00 | 0.00 | 0.00 | 19 | 992.9 |
| 20260510103017 | 76 | 98 | 0.0 | 1.0 | 0.00 | 0.00 | 0.00 | 19 | 992.8 |
| 20260510101515 | 76 | 88 | 0.0 | 1.0 | 0.00 | 0.00 | 0.00 | 20 | 992.6 |
| 20260510100014 | 75 | 310 | 0.0 | 1.0 | 0.00 | 0.00 | 0.00 | 22 | 992.3 |
| 20260510094522 | 76 | 241 | 0.0 | 1.0 | 0.00 | 0.00 | 0.00 | 20 | 992.3 |
| 20260510093007 | 77 | 138 | 0.0 | 1.0 | 0.00 | 0.00 | 0.00 | 21 | 992.2 |
| 20260510091506 | 78 | 153 | 0.0 | 2.0 | 0.00 | 0.00 | 0.00 | 19 | 992.0 |
| 20260510090002 | 79 | 253 | 0.0 | 1.0 | 0.00 | 0.00 | 0.00 | 18 | 991.9 |
| 20260510084558 | 80 | 248 | 0.0 | 2.0 | 0.00 | 0.00 | 0.00 | 17 | 991.7 |
| 20260510083059 | 82 | 211 | 0.0 | 5.0 | 0.00 | 0.00 | 0.00 | 17 | 991.6 |
| 20260510081625 | 82 | 134 | 3.0 | 5.0 | 0.00 | 0.00 | 0.00 | 17 | 991.6 |
| 20260510080059 | 81 | 84 | 1.0 | 2.0 | 0.00 | 0.00 | 0.00 | 18 | 991.7 |
| 20260510074559 | 80 | 331 | 0.0 | 1.0 | 0.00 | 0.00 | 0.00 | 18 | 991.7 |
| 20260510073052 | 81 | 329 | 0.0 | 0.0 | 0.00 | 0.00 | 0.00 | 18 | 991.6 |
| 20260510071547 | 83 | 259 | 0.0 | 1.0 | 0.00 | 0.00 | 0.00 | 16 | 991.6 |
| 20260510070043 | 86 | 225 | 1.0 | 5.0 | 0.00 | 0.00 | 0.00 | 14 | 991.4 |
| 20260510064544 | 89 | 134 | 2.0 | 6.0 | 0.00 | 0.00 | 0.00 | 13 | 991.2 |
| 20260510063040 | 89 | 123 | 0.0 | 4.0 | 0.00 | 0.00 | 0.00 | 14 | 991.2 |
| 20260510061540 | 89 | 152 | 2.0 | 5.0 | 0.00 | 0.00 | 0.00 | 14 | 991.1 |
| 20260510060048 | 88 | 136 | 2.0 | 5.0 | 0.00 | 0.00 | 0.00 | 15 | 991.0 |
| 20260510054539 | 89 | 157 | 2.0 | 5.0 | 0.00 | 0.00 | 0.00 | 15 | 990.9 |
| 20260510053038 | 90 | 117 | 2.0 | 5.0 | 0.00 | 0.00 | 0.00 | 13 | 990.9 |
| 20260510051550 | 90 | 146 | 3.0 | 6.0 | 0.00 | 0.00 | 0.00 | 13 | 990.9 |
| 20260510050042 | 90 | 112 | 1.0 | 4.0 | 0.00 | 0.00 | 0.00 | 13 | 990.8 |
| 20260510044538 | 91 | 123 | 0.0 | 5.0 | 0.00 | 0.00 | 0.00 | 13 | 990.7 |
| 20260510043049 | 92 | 87 | 1.0 | 4.0 | 0.00 | 0.00 | 0.00 | 14 | 990.6 |
| 20260510041536 | 92 | 138 | 0.0 | 2.0 | 0.00 | 0.00 | 0.00 | 14 | 990.4 |
| 20260510040036 | 92 | 140 | 0.0 | 2.0 | 0.00 | 0.00 | 0.00 | 16 | 990.2 |
| 20260510034537 | 93 | 148 | 0.0 | 2.0 | 0.00 | 0.00 | 0.00 | 16 | 990.0 |
| 20260510033039 | 94 | 157 | 0.0 | 4.0 | 0.00 | 0.00 | 0.00 | 15 | 989.7 |
| 20260510031602 | 95 | 251 | 0.0 | 5.0 | 0.00 | 0.00 | 0.00 | 14 | 989.5 |
| 20260510030037 | 96 | 114 | 3.0 | 6.0 | 0.00 | 0.00 | 0.00 | 14 | 989.2 |
| 20260510024536 | 97 | 163 | 1.0 | 6.0 | 0.00 | 0.00 | 0.00 | 13 | 989.1 |
| 20260510023043 | 99 | 178 | 2.0 | 7.0 | 0.00 | 0.00 | 0.00 | 13 | 989.0 |
| 20260510021534 | 102 | 184 | 1.0 | 7.0 | 0.00 | 0.00 | 0.00 | 12 | 988.8 |
| 20260510020031 | 103 | 187 | 2.0 | 8.0 | 0.00 | 0.00 | 0.00 | 11 | 988.8 |
| 20260510014532 | 104 | 176 | 4.0 | 8.0 | 0.00 | 0.00 | 0.00 | 10 | 988.6 |
| 20260510013029 | 104 | 132 | 5.0 | 8.0 | 0.00 | 0.00 | 0.00 | 10 | 988.6 |
| 20260510011529 | 105 | 171 | 5.0 | 14.0 | 0.00 | 0.00 | 0.00 | 11 | 988.7 |
| 20260510010029 | 105 | 163 | 1.0 | 10.0 | 0.00 | 0.00 | 0.00 | 10 | 988.6 |
| 20260510004527 | 105 | 143 | 6.0 | 13.0 | 0.00 | 0.00 | 0.00 | 10 | 988.7 |
| 20260510003026 | 106 | 171 | 5.0 | 10.0 | 0.00 | 0.00 | 0.00 | 9 | 988.7 |
| 20260510001525 | 106 | 119 | 7.0 | 12.0 | 0.00 | 0.00 | 0.00 | 9 | 988.8 |
| 20260510000024 | 106 | 109 | 7.0 | 12.0 | 0.00 | 0.00 | 0.00 | 10 | 988.8 |
| 20260509234524 | 105 | 143 | 8.0 | 13.0 | 0.00 | 0.00 | 0.00 | 10 | 988.8 |
| 20260509233021 | 106 | 145 | 5.0 | 11.0 | 0.00 | 0.00 | 0.00 | 10 | 988.9 |
| 20260509231519 | 105 | 238 | 4.0 | 14.0 | 0.00 | 0.00 | 0.00 | 11 | 989.1 |
| 20260509230016 | 106 | 170 | 3.0 | 8.0 | 0.00 | 0.00 | 0.00 | 10 | 989.2 |
| 20260509224514 | 106 | 111 | 5.0 | 13.0 | 0.00 | 0.00 | 0.00 | 10 | 989.5 |
| 20260509223012 | 107 | 151 | 6.0 | 12.0 | 0.00 | 0.00 | 0.00 | 10 | 989.7 |
| 20260509221511 | 106 | 151 | 3.0 | 10.0 | 0.00 | 0.00 | 0.00 | 10 | 989.9 |
| 20260509220009 | 107 | 193 | 7.0 | 13.0 | 0.00 | 0.00 | 0.00 | 10 | 990.3 |
| 20260509214504 | 105 | 261 | 1.0 | 9.0 | 0.00 | 0.00 | 0.00 | 11 | 990.6 |
| 20260509213003 | 106 | 277 | 7.0 | 12.0 | 0.00 | 0.00 | 0.00 | 10 | 990.9 |
| 20260509211502 | 105 | 115 | 1.0 | 8.0 | 0.00 | 0.00 | 0.00 | 10 | 991.0 |
| 20260509204603 | 105 | 107 | 2.0 | 4.0 | 0.00 | 0.00 | 0.00 | 8 | 991.5 |
| 20260509203100 | 105 | 238 | 0.0 | 5.0 | 0.00 | 0.00 | 0.00 | 11 | 991.7 |
| 20260509201553 | 104 | 108 | 0.0 | 6.0 | 0.00 | 0.00 | 0.00 | 10 | 992.0 |